Weather History for KMLF - December, 2013

Change the Weather History Date:

Friday, December 6, 2013

  Actual Average Record
Temperature  
Mean Temperature 2 °F -  
Max Temperature 21 °F 41 °F 57 °F (2012)
Min Temperature -18 °F 19 °F -18 °F (2013)
Degree Days  
Heating Degree Days 64    
Moisture  
Dew Point -7 °F    
Average Humidity 77    
Maximum Humidity 91    
Minimum Humidity 49    
Precipitation  
Precipitation 0.00 in - - ()
Sea Level Pressure  
Sea Level Pressure 30.23 in    
Wind  
Wind Speed 9 mph (SSW)    
Max Wind Speed 18 mph    
Max Gust Speed -    
Visibility 8 miles    
Events Snow    
Averages and records for this station are not official NWS values.
T = Trace of Precipitation, MM = Missing Value Source: NWS Daily Summary

Daily Weather History Graph

Daily Weather History Graph

Search for Another Location

Airport or City:

Trip Planner

Search our weather history database for the weather conditions in past years. The results will help you decide how hot, cold, wet, or windy it might be!

Date:

Astronomy

Dec. 06, 2013 Rise Set
Actual Time 7:35 AM MST 5:11 PM MST
Civil Twilight 7:05 AM MST 5:40 PM MST
Nautical Twilight 6:32 AM MST 6:13 PM MST
Astronomical Twilight 6:00 AM MST 6:45 PM MST
Moon 10:45 AM MST (12/6) 9:45 PM MST (12/6)
Length of Visible Light 10h 34m
Length of Day
9h 35m
Waxing Crescent, 20% of the Moon is Illuminated
Dec 6
Waxing Crescent
Dec 9
First Quarter
Dec 17
Full
Dec 25
Last Quarter
Jan 1
New

Hourly Weather History & Observations

Time (MST) Temp. Windchill Dew Point Humidity Pressure Visibility Wind Dir Wind Speed Gust Speed Precip Events Conditions
12:52 AM -17.0 °F -34.8 °F -20.9 °F 82% 30.40 in 10.0 mi South 8.1 mph - N/A   Clear
1:12 AM -17.0 °F -34.8 °F -20.9 °F 82% 30.04 in 10.0 mi SSW 8.1 mph - N/A   Scattered Clouds
1:20 AM -17.0 °F -34.8 °F -20.9 °F 82% 30.03 in 8.0 mi SSW 8.1 mph - N/A   Mostly Cloudy
1:28 AM -15.0 °F -33.7 °F -18.0 °F 86% 30.04 in 1.8 mi SSW 9.2 mph - N/A   Mostly Cloudy
1:35 AM -15.0 °F -33.7 °F -17.0 °F 91% 30.04 in 3.0 mi SSW 9.2 mph - N/A   Overcast
1:52 AM -16.1 °F -36.2 °F -18.0 °F 91% 30.38 in 3.0 mi South 10.4 mph - N/A   Mostly Cloudy
2:52 AM -16.1 °F -36.2 °F -20.0 °F 82% 30.37 in 9.0 mi SSW 10.4 mph - N/A   Mostly Cloudy
3:04 AM -16.1 °F -35.0 °F -18.9 °F 87% 30.05 in 10.0 mi SSW 9.2 mph - N/A   Scattered Clouds
3:52 AM -18.9 °F -35.8 °F -22.0 °F 86% 30.38 in 10.0 mi South 6.9 mph - N/A   Clear
4:38 AM -17.0 °F -34.8 °F -22.0 °F 78% 30.03 in 10.0 mi South 8.1 mph - N/A   Scattered Clouds
4:47 AM -16.1 °F -33.7 °F -20.9 °F 79% 30.04 in 9.0 mi SSW 8.1 mph - N/A   Mostly Cloudy
4:52 AM -17.0 °F -33.4 °F -20.0 °F 86% 30.39 in 9.0 mi SSW 6.9 mph - N/A   Mostly Cloudy
5:03 AM -17.0 °F -34.8 °F -20.0 °F 86% 30.04 in 10.0 mi SSW 8.1 mph - N/A   Mostly Cloudy
5:37 AM -15.0 °F -32.4 °F -20.0 °F 78% 30.04 in 10.0 mi SSW 8.1 mph - N/A   Mostly Cloudy
5:52 AM -14.1 °F -29.9 °F -18.0 °F 82% 30.42 in 10.0 mi SSW 6.9 mph - N/A   Overcast
6:31 AM -13.0 °F -30.0 °F -16.1 °F 86% 30.05 in 2.5 mi South 8.1 mph - N/A   Overcast
6:52 AM -14.1 °F -33.7 °F -17.0 °F 87% 30.43 in 4.0 mi SSW 10.4 mph - N/A   Overcast
7:19 AM -14.1 °F -33.7 °F -18.0 °F 82% 30.06 in 10.0 mi SSW 10.4 mph - N/A   Scattered Clouds
7:52 AM -15.0 °F -32.4 °F -18.9 °F 82% 30.45 in 10.0 mi South 8.1 mph - N/A   Scattered Clouds
8:52 AM -11.0 °F -24.6 °F -15.0 °F 83% 30.43 in 10.0 mi South 5.8 mph - N/A   Overcast
9:52 AM -5.1 °F -19.1 °F -9.0 °F 83% 30.43 in 10.0 mi South 6.9 mph - N/A   Mostly Cloudy
10:28 AM -2.0 °F -15.4 °F -5.1 °F 87% 30.08 in 3.0 mi South 6.9 mph - N/A   Mostly Cloudy
10:52 AM 1.9 °F -15.5 °F -2.9 °F 80% 30.39 in 10.0 mi SSE 12.7 mph - N/A   Partly Cloudy
11:52 AM 9.0 °F -4.2 °F 1.9 °F 73% 30.35 in 10.0 mi SE 9.2 mph - N/A   Clear
12:52 PM 10.0 °F -8.1 °F 3.9 °F 76% 30.32 in 10.0 mi South 18.4 mph - N/A   Mostly Cloudy
1:52 PM 15.1 °F -0.6 °F 7.0 °F 70% 30.27 in 10.0 mi SW 16.1 mph - N/A   Scattered Clouds
2:52 PM 17.1 °F 3.0 °F 8.1 °F 68% 30.25 in 10.0 mi South 13.8 mph - N/A   Mostly Cloudy
4:52 PM 16.0 °F 4.4 °F 9.0 °F 74% 30.26 in 10.0 mi SE 9.2 mph - N/A   Overcast
5:52 PM 15.1 °F 7.7 °F 9.0 °F 77% 30.26 in 10.0 mi SE 4.6 mph - N/A   Overcast
6:52 PM 17.1 °F 6.6 °F 8.1 °F 68% 30.25 in 10.0 mi South 8.1 mph - N/A   Mostly Cloudy
7:52 PM 18.0 °F 4.8 °F 8.1 °F 65% 30.25 in 10.0 mi SW 12.7 mph - N/A   Mostly Cloudy
8:52 PM 18.0 °F 4.8 °F 9.0 °F 68% 30.24 in 10.0 mi SSW 12.7 mph - N/A   Overcast
9:52 PM 18.0 °F 7.7 °F 10.0 °F 71% 30.21 in 10.0 mi West 8.1 mph - N/A   Overcast
10:52 PM 21.9 °F 15.7 °F 10.9 °F 63% 30.16 in 10.0 mi SSW 4.6 mph - N/A   Overcast
11:13 PM 21.9 °F - 12.0 °F 66% 29.98 in 10.0 mi Calm Calm - N/A   Overcast
11:49 PM 21.2 °F 9.5 °F 15.8 °F 80% 29.96 in 5.0 mi SW 11.5 mph - 0.00 in Snow Light Snow
11:52 PM 21.0 °F 9.3 °F 16.0 °F 81% 30.12 in 5.0 mi SW 11.5 mph - 0.00 in Snow Light Snow